Snowfall_Accumulation
0.0 0.0 0.0 0.0 0.0 0.0 0.0 0.0 6.5 0.0 0.0 1.7 12.2 12.4 3.5 0.0 0.0 0.0 0.8 1.0 1.7 2.6 1.1 3.5 2.7 2.3 0.0 0.0 0.4 1.1 0.6 4.1 4.5 0.8 0.0 0.0 0.0 1.2 2.3 11.4 10.6 5.6 5.2 0.4
0.0 0.0 0.0 0.0 0.0 0.0 0.0 3.9 1.0 0.0 0.0 8.1 6.0 2.0 1.5 0.9 1.6 0.8 2.1 3.5 2.7 2.1 2.8 4.9 0.6 0.6 0.0 0.0 0.0 2.7 0.0 6.7 8.5 3.7 0.0 0.0 0.6 0.1 2.3 9.4 10.3 10.8 12.8 7.0
0.0 0.0 0.0 0.0 0.0 0.0 0.0 4.3 5.5 0.0 0.0 0.0 1.2 2.1 3.1 3.2 0.0 0.7 0.0 3.0 2.3 2.7 1.0 0.9 2.7 0.3 0.0 0.0 0.0 0.0 0.0 4.3 4.2 4.5 2.5 2.7 5.3 3.1 1.5 5.2 15.3 9.1 7.2 4.4
0.0 0.0 0.0 0.0 0.0 0.0 0.0 5.8 4.8 0.0 2.6 1.6 1.2 1.3 2.4 1.2 1.3 0.0 0.0 1.9 1.8 3.4 6.5 2.6 0.9 0.5 0.1 0.0 0.0 0.0 0.0 5.6 2.3 1.3 1.0 0.8 0.7 0.1 0.0 1.8 2.1 6.7 2.5 0.7
0.0 0.0 0.0 0.0 0.0 0.0 0.0 6.7 2.8 0.7 0.8 0.1 0.6 4.7 6.5 3.7 1.2 3.8 1.6 2.8 0.9 1.4 5.8 2.8 4.5 2.6 0.0 1.8 0.0 0.0 0.0 1.1 1.2 1.5 0.1 0.1 1.5 0.6 0.4 0.3 0.4 0.4 0.2 0.3
0.0 0.0 0.0 0.0 0.0 0.0 0.0 0.3 0.0 1.5 1.8 1.0 2.0 1.2 1.0 2.3 2.2 0.1 0.7 1.2 2.8 4.1 2.0 0.3 0.2 0.5 0.8 2.0 4.0 3.0 1.9 2.0 0.8 2.8 0.0 1.1 4.2 0.3 0.0 0.0 0.0 0.0 0.6 0.0
0.0 0.0 0.0 0.0 0.0 0.0 0.0 0.0 0.0 3.5 1.9 0.7 0.3 0.1 0.5 0.7 0.6 3.2 0.9 0.3 1.2 0.0 0.0 0.0 0.0 0.2 0.1 0.1 0.6 0.9 4.7 2.8 2.4 2.4 1.4 6.4 0.3 0.0 0.0 0.0 0.0 0.0 0.0 0.0
0.0 0.0 0.0 0.0 0.0 0.0 0.0 0.0 0.0 1.4 2.9 0.4 0.3 0.0 0.9 0.0 0.3 0.7 0.9 0.6 0.0 0.0 0.5 0.7 2.0 1.4 1.0 0.7 0.1 0.3 1.0 3.8 5.9 3.5 1.8 0.0 0.0 0.0 0.0 0.0 0.0 0.0 0.0 0.0
0.0 0.0 0.0 0.0 0.0 0.0 0.0 0.0 0.0 0.9 4.0 2.3 0.3 2.1 1.9 3.1 1.6 2.8 1.8 0.0 0.0 0.0 2.2 3.7 1.9 1.0 0.7 0.9 0.3 0.0 0.3 1.7 9.8 7.7 4.8 1.9 0.1 0.0 0.0 0.0 0.0 0.0 0.0 0.0
0.0 0.0 0.0 0.0 0.0 0.0 0.0 0.0 0.0 0.2 2.3 0.0 0.4 1.6 2.4 1.6 0.6 0.5 0.0 0.0 0.1 0.3 3.4 5.0 5.5 3.7 1.9 3.0 3.1 1.6 3.3 5.3 13.0 12.0 12.7 3.7 0.7 0.0 0.0 2.2 1.8 0.4 0.0 0.0
0.0 0.0 0.0 0.0 0.0 0.0 0.0 0.0 0.0 0.0 0.5 0.0 0.0 0.0 0.0 0.0 0.4 0.6 0.0 0.0 0.1 0.7 2.1 4.0 3.8 4.7 4.3 2.2 0.9 2.0 6.1 7.3 5.7 8.0 12.2 15.0 1.0 0.2 2.0 1.6 0.0 0.3 0.0 0.0
0.0 0.0 0.0 0.0 0.0 0.0 0.0 2.1 0.0 0.0 0.1 0.0 0.0 0.0 0.0 0.0 0.0 0.0 0.0 0.3 0.0 0.2 1.1 1.7 0.8 1.2 0.7 0.6 1.1 0.1 2.8 2.8 4.9 5.8 8.7 4.2 3.0 2.3 0.4 0.1 0.9 0.5 0.0 0.0
0.0 0.0 0.0 0.0 0.0 0.0 0.0 0.7 0.0 0.0 0.7 0.0 0.0 0.0 0.0 0.0 0.0 0.0 0.0 0.0 0.0 0.0 0.0 0.0 0.1 0.2 0.0 0.0 0.0 0.0 0.0 0.0 0.1 0.1 0.9 0.4 2.6 1.1 0.1 0.0 0.2 0.0 0.0 0.0
0.0 0.0 0.0 0.0 0.0 0.0 0.0 0.0 0.0 0.0 0.0 1.0 0.0 0.0 0.0 0.0 0.0 0.0 0.0 0.0 0.0 0.0 0.0 0.0 0.1 0.0 0.0 0.0 0.0 0.0 0.0 0.0 0.0 0.0 0.0 0.0 0.0 0.0 0.0 0.0 0.0 0.0 0.0 0.1
0.0 0.0 0.0 0.0 0.0 0.0 0.0 0.0 0.0 0.0 0.0 2.5 0.2 0.0 0.0 0.0 0.0 0.0 0.0 0.0 0.0 0.0 0.0 0.0 0.0 0.0 0.0 0.0 0.0 0.0 0.0 0.0 0.0 0.0 0.0 1.2 0.0 0.0 0.0 0.0 0.0 0.0 0.0 0.5
0.0 0.0 0.0 0.0 0.0 0.0 0.0 3.8 0.0 0.0 0.0 0.5 0.6 0.0 0.0 0.0 0.0 0.0 0.0 0.0 0.0 0.0 0.0 0.0 0.0 0.0 0.0 0.2 0.0 0.0 0.0 0.0 0.0 0.0 0.0 0.0 0.0 0.0 0.0 0.0 0.0 0.0 0.0 0.0
0.0 0.0 0.0 0.0 0.0 0.0 0.0 0.4 0.0 0.0 0.0 0.6 0.5 0.1 0.0 0.0 0.0 0.0 0.0 0.0 0.0 0.0 0.1 0.0 0.0 0.0 0.3 0.5 0.1 0.0 0.0 0.0 0.0 0.0 0.0 0.0 0.0 0.0 0.0 0.0 0.0 0.0 0.0 0.0
0.0 0.0 0.0 0.0 0.0 0.0 0.0 0.0 0.0 0.0 0.0 0.0 0.5 0.5 0.0 0.0 0.0 0.0 0.0 0.0 0.0 0.0 0.0 0.0 0.0 0.0 0.0 0.6 0.0 0.0 0.0 0.0 0.0 0.0 0.0 0.0 0.0 0.0 0.0 0.0 0.0 0.0 0.0 0.0
0.0 0.0 0.0 0.0 0.0 0.0 0.0 0.0 0.0 0.0 0.1 0.3 0.2 0.7 2.3 0.0 0.0 0.0 0.0 0.0 0.1 0.0 0.1 0.0 0.1 0.0 0.3 0.1 0.0 0.0 0.0 0.1 0.1 0.0 0.0 0.0 0.0 0.0 0.0 0.0 0.0 0.0 0.0 0.0
0.0 0.0 0.2 1.0 0.5 0.0 0.0 0.0 1.2 1.1 0.3 0.0 0.1 0.0 0.5 0.0 0.0 0.0 0.0 0.0 0.1 0.7 0.2 0.0 0.1 0.2 0.0 0.4 1.1 1.1 0.4 0.1 0.0 0.3 0.1 0.0 0.0 0.0 0.0 0.0 0.0 0.0 0.0 0.0
0.0 0.1 0.5 0.0 0.0 0.0 0.0 0.2 0.1 0.0 0.2 0.0 0.0 0.0 0.1 0.0 0.0 0.1 0.0 0.3 0.8 1.7 0.4 0.3 0.6 2.2 1.2 2.7 4.4 1.7 0.4 0.1 0.0 0.0 0.0 0.0 0.0 0.0 0.0 0.0 0.0 0.0 0.0 0.0
0.0 0.0 0.0 0.0 0.1 0.0 0.0 0.0 0.0 0.0 0.3 0.0 0.0 0.0 0.0 0.1 0.0 0.2 0.4 0.6 0.3 0.5 0.0 3.9 4.5 1.7 2.4 2.8 3.0 0.7 0.0 0.0 0.0 0.0 0.0 0.0 0.0 0.0 0.0 0.0 0.0 0.0 0.0 0.0
0.0 0.0 0.0 0.0 0.0 0.0 0.0 0.2 0.0 0.2 0.0 0.0 0.0 0.3 0.0 0.1 0.4 1.2 1.1 0.9 0.3 0.1 3.0 7.1 5.3 2.2 0.9 0.7 0.9 0.6 0.1 0.0 0.0 0.0 0.0 0.0 0.0 0.0 0.1 0.0 0.0 0.0 0.0 0.1
0.0 0.1 0.0 0.0 0.1 0.0 0.0 0.0 0.1 0.0 0.0 0.0 0.0 1.4 2.2 1.1 3.9 0.9 3.3 0.4 0.7 3.0 6.2 6.9 4.5 0.4 1.5 0.4 0.3 0.2 0.4 0.6 0.4 0.2 0.0 0.5 0.3 0.4 1.0 0.1 0.0 0.0 0.0 0.1
0.0 0.0 0.0 0.0 0.0 0.0 0.0 0.1 0.0 0.0 0.0 0.4 2.1 1.2 2.1 3.3 4.5 1.8 0.3 2.3 3.6 6.3 2.7 5.9 0.0 0.0 0.2 0.1 0.2 0.3 0.3 0.2 0.4 0.4 0.4 2.5 1.2 1.4 2.6 1.0 0.4 0.2 0.2 0.0
0.0 0.0 0.0 0.0 0.1 0.2 0.1 0.0 0.0 0.0 0.8 1.1 2.2 2.6 4.9 4.5 1.4 3.1 0.8 2.7 8.6 5.0 0.4 0.0 0.0 0.0 0.0 0.0 0.0 0.0 0.2 0.1 0.1 0.1 0.2 0.9 1.0 1.3 0.8 0.9 0.9 0.3 0.2 0.1
0.0 0.0 0.0 0.0 0.1 0.1 0.0 0.0 0.0 0.0 1.0 2.5 2.2 7.9 6.3 4.5 5.8 8.8 3.2 6.2 10.0 2.1 0.5 0.0 0.0 0.0 0.0 0.0 0.0 0.0 0.0 0.0 0.0 0.0 0.0 0.0 0.0 0.0 0.0 0.0 0.2 0.2 0.1 0.1